Weather History for Air Force Academy, CO

Change the Weather History Date:

Wednesday, February 6, 2013

  Actual Average Record
Temperature  
Mean Temperature 40 °F -  
Max Temperature 56 °F 40 °F 59 °F (2007)
Min Temperature 23 °F 18 °F -21 °F (2014)
Degree Days  
Heating Degree Days 26    
Moisture  
Dew Point 26 °F    
Average Humidity 72    
Maximum Humidity 100    
Minimum Humidity 19    
Precipitation  
Precipitation 0.00 in - - ()
Sea Level Pressure  
Sea Level Pressure 29.94 in    
Wind  
Wind Speed 9 mph (NNW)    
Max Wind Speed 16 mph    
Max Gust Speed 23 mph    
Visibility 8 miles    
Events Rain , Snow    
Averages and records for this station are not official NWS values.
T = Trace of Precipitation, MM = Missing Value Source: NWS Daily Summary

Daily Weather History Graph

Daily Weather History Graph

Search for Another Location

Airport:

Trip Planner

Search our weather history database for the weather conditions in past years. The results will help you decide how hot, cold, wet, or windy it might be!

Date:

Astronomy

Feb. 06, 2013 Rise Set
Actual Time 7:00 AM MST 5:26 PM MST
Civil Twilight 6:32 AM MST 5:54 PM MST
Nautical Twilight 6:01 AM MST 6:26 PM MST
Astronomical Twilight 5:29 AM MST 6:57 PM MST
Moon 3:45 AM MST (2/6) 1:48 PM MST (2/6)
Length of Visible Light 11h 21m
Length of Day
10h 26m
Waning Crescent, 16% of the Moon is Illuminated
Feb 6
Waning Crescent
Feb 10
New
Feb 17
First Quarter
Feb 25
Full
Mar 4
Last Quarter

Hourly Weather History & Observations

Time (MST) Temp. Windchill Dew Point Humidity Pressure Visibility Wind Dir Wind Speed Gust Speed Precip Events Conditions
12:58 AM 25.7 °F 15.7 °F 12.6 °F 58% 29.87 in 10.0 mi NNW 10.4 mph - N/A   Scattered Clouds
1:58 AM 23.9 °F 15.8 °F 12.4 °F 62% 29.86 in 10.0 mi North 6.9 mph - N/A   Clear
2:58 AM 25.3 °F 19.7 °F 13.1 °F 60% 29.84 in 10.0 mi NNW 4.6 mph - N/A   Scattered Clouds
3:58 AM 32.7 °F 28.3 °F 11.5 °F 41% 29.79 in 10.0 mi North 4.6 mph - N/A   Partly Cloudy
4:58 AM 27.9 °F - 12.4 °F 52% 29.83 in 10.0 mi Variable 2.3 mph - N/A   Clear
5:58 AM 40.3 °F 35.5 °F 12.7 °F 33% 29.77 in 10.0 mi NE 6.9 mph - N/A   Clear
6:58 AM 41.0 °F - 11.5 °F 30% 29.79 in 10.0 mi Variable 2.3 mph - N/A   Clear
7:58 AM 39.7 °F 33.2 °F 13.3 °F 34% 29.82 in 10.0 mi North 10.4 mph - N/A   Clear
8:58 AM 50.4 °F - 12.0 °F 22% 29.82 in 10.0 mi NNE 15.0 mph 23.0 mph N/A   Clear
9:58 AM 52.5 °F - 12.7 °F 21% 29.80 in 10.0 mi NE 11.5 mph - N/A   Clear
10:58 AM 54.1 °F - 15.3 °F 22% 29.81 in 10.0 mi NE 8.1 mph - N/A   Clear
11:58 AM 54.9 °F - 14.7 °F 21% 29.77 in 10.0 mi NE 8.1 mph - N/A   Clear
12:58 PM 56.1 °F - 14.5 °F 19% 29.76 in 10.0 mi Variable 5.8 mph - N/A   Partly Cloudy
1:58 PM 52.3 °F - 15.8 °F 24% 29.78 in 10.0 mi NE 13.8 mph 19.6 mph N/A   Clear
2:27 PM 51.8 °F - 19.4 °F 28% 29.82 in 10.0 mi North 12.7 mph - N/A   Scattered Clouds
2:58 PM 48.4 °F - 21.4 °F 35% 29.83 in 10.0 mi NNE 12.7 mph - N/A   Partly Cloudy
3:58 PM 46.9 °F - 22.1 °F 38% 29.84 in 10.0 mi NNE 9.2 mph - N/A   Clear
4:29 PM 44.6 °F 40.2 °F 24.8 °F 46% 29.88 in 10.0 mi SSW 8.1 mph - N/A Rain Light Rain
4:40 PM 44.6 °F 40.2 °F 26.6 °F 49% 29.88 in 10.0 mi SSE 8.1 mph - N/A   Partly Cloudy
4:58 PM 43.9 °F 42.3 °F 27.5 °F 53% 29.90 in 10.0 mi Variable 3.5 mph - 0.00 in   Partly Cloudy
5:58 PM 42.4 °F 36.5 °F 27.5 °F 56% 29.88 in 10.0 mi SE 10.4 mph - N/A   Scattered Clouds
6:53 PM 39.2 °F 32.5 °F 32.0 °F 75% 29.93 in 10.0 mi NNE 10.4 mph - N/A   Mostly Cloudy
6:58 PM 38.3 °F 32.5 °F 30.9 °F 75% 29.92 in 10.0 mi NNE 8.1 mph - N/A   Mostly Cloudy
7:13 PM 37.4 °F 30.3 °F 30.2 °F 75% 29.94 in 10.0 mi NNW 10.4 mph - N/A   Overcast
7:18 PM 37.4 °F 30.8 °F 30.2 °F 75% 29.94 in 10.0 mi North 9.2 mph - N/A   Overcast
7:58 PM 37.0 °F 31.0 °F 30.7 °F 78% 29.94 in 10.0 mi NW 8.1 mph - N/A   Scattered Clouds
8:22 PM 35.6 °F 27.1 °F 32.0 °F 87% 29.97 in 10.0 mi NNW 12.7 mph - N/A   Light Drizzle
8:37 PM 35.6 °F 27.5 °F 32.0 °F 87% 29.98 in 10.0 mi NNW 11.5 mph - N/A Rain Light Rain
8:57 PM 35.6 °F 27.5 °F 32.0 °F 87% 29.99 in 10.0 mi NNW 11.5 mph - N/A Snow Light Snow
8:58 PM 35.1 °F 27.4 °F 31.6 °F 87% 29.94 in 10.0 mi NNW 10.4 mph - 0.00 in Snow Light Snow
9:18 PM 32.0 °F 23.0 °F 32.0 °F 100% 30.00 in 4.0 mi NNW 11.5 mph - N/A Snow Light Snow
9:23 PM 32.0 °F 21.2 °F 32.0 °F 100% 30.00 in 2.5 mi NNW 16.1 mph 20.7 mph N/A Snow Light Snow
9:28 PM 32.0 °F 21.6 °F 32.0 °F 100% 30.00 in 2.0 mi North 15.0 mph 21.9 mph N/A Snow Light Snow
9:33 PM 32.0 °F 23.0 °F 32.0 °F 100% 30.00 in 2.5 mi NNW 11.5 mph 21.9 mph N/A Snow Light Snow
9:38 PM 32.0 °F 22.1 °F 32.0 °F 100% 30.01 in 3.0 mi NNW 13.8 mph - N/A Snow Light Snow
9:43 PM 32.0 °F 23.6 °F 32.0 °F 100% 30.02 in 3.0 mi NNW 10.4 mph - N/A Snow Light Snow
9:48 PM 32.0 °F 24.2 °F 32.0 °F 100% 30.02 in 4.0 mi NNW 9.2 mph - N/A Snow Light Snow
9:58 PM 32.0 °F 23.0 °F 32.0 °F 100% 29.97 in 2.0 mi NW 11.5 mph - 0.00 in Snow Light Snow
10:03 PM 32.0 °F 23.6 °F 32.0 °F 100% 30.02 in 1.2 mi NW 10.4 mph - N/A Snow Light Snow
10:08 PM 32.0 °F 24.2 °F 32.0 °F 100% 30.03 in 1.0 mi NW 9.2 mph - N/A Snow Light Snow
10:13 PM 32.0 °F 23.6 °F 32.0 °F 100% 30.03 in 1.5 mi NW 10.4 mph - N/A Snow Light Snow
10:18 PM 32.0 °F 23.6 °F 32.0 °F 100% 30.03 in 2.0 mi NW 10.4 mph - N/A Snow Light Snow
10:28 PM 32.0 °F 23.6 °F 32.0 °F 100% 30.03 in 2.5 mi NW 10.4 mph - N/A Snow Light Snow
10:33 PM 32.0 °F 23.6 °F 32.0 °F 100% 30.03 in 3.0 mi NW 10.4 mph - N/A Snow Light Snow
10:38 PM 32.0 °F 23.0 °F 32.0 °F 100% 30.03 in 6.0 mi NW 11.5 mph - N/A Snow Light Snow
10:48 PM 32.0 °F 23.6 °F 32.0 °F 100% 30.03 in 10.0 mi NW 10.4 mph - N/A Snow Light Snow
10:53 PM 32.0 °F 23.6 °F 32.0 °F 100% 30.03 in 6.0 mi NW 10.4 mph - N/A Snow Light Snow
10:58 PM 32.0 °F 24.2 °F 30.2 °F 93% 29.98 in 3.0 mi NNW 9.2 mph - 0.00 in Snow Light Snow
11:03 PM 32.0 °F 23.6 °F 30.2 °F 93% 30.04 in 3.0 mi NNW 10.4 mph - N/A Snow Light Snow
11:08 PM 32.0 °F 23.6 °F 30.2 °F 93% 30.04 in 6.0 mi NNW 10.4 mph - N/A Snow Light Snow
11:13 PM 32.0 °F 23.6 °F 30.2 °F 93% 30.04 in 9.0 mi NNW 10.4 mph - N/A Snow Light Snow
11:23 PM 32.0 °F 23.6 °F 30.2 °F 93% 30.04 in 10.0 mi NNW 10.4 mph - N/A Snow Light Snow
11:28 PM 32.0 °F 24.8 °F 28.4 °F 87% 30.04 in 10.0 mi NNW 8.1 mph - N/A Snow Light Snow
11:33 PM 32.0 °F 25.6 °F 28.4 °F 87% 30.05 in 10.0 mi NNW 6.9 mph - N/A Snow Light Snow
11:53 PM 32.0 °F 23.6 °F 28.4 °F 87% 30.05 in 10.0 mi North 10.4 mph - N/A   Mostly Cloudy
11:58 PM 30.9 °F 22.2 °F 27.3 °F 86% 29.99 in 10.0 mi North 10.4 mph - 0.00 in   Mostly Cloudy